sat.trackr.live / text

‹ back to catalog

STARLINK-36093

NORAD 67015 · 2025-293N

PAYLOAD ACTIVE UNKNOWN

§ Identity

Operator
Country
US
Launch date
2025-12-10
Launch site
AFWTR
Launch vehicle
Mass (kg)
RCS (m²)

Purposes: comms

External: N2YO · Heavens-Above · Gunter

§ Orbital elements

Epoch: 2026-09-20T20:43:31.543392Z

Period
96.11 min
Inclination
70.0014°
Eccentricity
0.0003815
Mean motion
14.98329155 rev/d
Perigee alt
569.4 km
Apogee alt
574.7 km
Semi-major
6,950.2 km
B*
2.3540e-4
RAAN
322.3274°
Arg perigee
272.0083°
Mean anomaly
88.0639°
Rev number
4,412

§ Raw data

STARLINK-360931 67015U 25293N   26263.86355953  .00002717  00000+0  23540-3 0  99962 67015  70.0014 322.3274 0003815 272.0083  88.0639 14.98329155 44127

JSON: /api/v1/satellites/67015 · /tle

For live sub-satellite position, see the globe view (requires WebGL).

§ Visibility from observer

Set your observer location to see the next 7 days of passes ≥ 10°. The values pass through the URL so the page stays shareable.

No JS? Fill the form by hand. The geolocation button needs JavaScript.